Carver, MA

10:15 PM EDT on July 25, 2016 (GMT -0400)
Plymouth Municipal

Weather History for KPYM - March, 2014

Change the Weather History Date:

Friday, March 14, 2014

  Actual Average Record
Temperature  
Mean Temperature 24 °F -  
Max Temperature 39 °F 45 °F 77 °F (1990)
Min Temperature 12 °F 26 °F 10 °F (1974)
Degree Days  
Heating Degree Days 40    
Moisture  
Dew Point 9 °F    
Average Humidity 50    
Maximum Humidity 68    
Minimum Humidity 35    
Precipitation  
Precipitation 0.00 in - - ()
Sea Level Pressure  
Sea Level Pressure 30.08 in    
Wind  
Wind Speed 13 mph (WSW)    
Max Wind Speed 21 mph    
Max Gust Speed 30 mph    
Visibility 10 miles    
Events      
Averages and records for this station are not official NWS values.
T = Trace of Precipitation, MM = Missing Value Source: NWS Daily Summary

Daily Weather History Graph

Daily Weather History Graph

Search for Another Location

Airport or City:

Trip Planner

Search our weather history database for the weather conditions in past years. The results will help you decide how hot, cold, wet, or windy it might be!

Date:

Astronomy

Mar. 14, 2014 Rise Set
Actual Time 6:56 AM EDT 6:48 PM EDT
Civil Twilight 6:28 AM EDT 7:16 PM EDT
Nautical Twilight 5:56 AM EDT 7:48 PM EDT
Astronomical Twilight 5:23 AM EDT 8:21 PM EDT
Moon 5:06 PM EDT (3/14) 5:36 AM EDT (3/14)
Length of Visible Light 12h 47m
Length of Day
11h 51m
Waxing Gibbous, 96% of the Moon is Illuminated
Mar 14
Waxing Gibbous
Mar 16
Full
Mar 23
Last Quarter
Mar 30
New
Apr 7
First Quarter

Hourly Weather History & Observations

Time (EDT) Temp. Windchill Dew Point Humidity Pressure Visibility Wind Dir Wind Speed Gust Speed Precip Events Conditions
12:52 AM 16.0 °F 1.1 °F -2.0 °F 45% 29.96 in 10.0 mi WNW 15.0 mph 21.9 mph N/A   Clear
1:52 AM 15.1 °F 0.5 °F -2.9 °F 45% 29.99 in 10.0 mi WNW 13.8 mph 19.6 mph N/A   Clear
2:52 AM 15.1 °F 2.5 °F -2.9 °F 45% 30.01 in 10.0 mi West 10.4 mph - N/A   Clear
3:52 AM 14.0 °F 2.9 °F -2.0 °F 49% 30.04 in 10.0 mi West 8.1 mph - N/A   Clear
4:52 AM 12.9 °F 1.6 °F -2.0 °F 51% 30.07 in 10.0 mi West 8.1 mph - N/A   Clear
5:52 AM 12.9 °F 3.8 °F -2.0 °F 51% 30.11 in 10.0 mi West 5.8 mph - N/A   Clear
6:52 AM 12.0 °F 0.5 °F -0.9 °F 56% 30.14 in 10.0 mi WSW 8.1 mph - N/A   Clear
7:52 AM 15.1 °F 5.2 °F 1.0 °F 54% 30.17 in 10.0 mi WSW 6.9 mph - N/A   Clear
8:52 AM 19.0 °F 5.6 °F 3.0 °F 50% 30.20 in 10.0 mi West 13.8 mph - N/A   Clear
9:52 AM 21.9 °F 11.0 °F 5.0 °F 48% 30.20 in 10.0 mi West 10.4 mph - N/A   Clear
10:52 AM 24.1 °F 16.0 °F 5.0 °F 44% 30.19 in 10.0 mi WSW 6.9 mph - N/A   Clear
11:52 AM 28.0 °F 18.1 °F 9.0 °F 45% 30.19 in 10.0 mi SW 11.5 mph - N/A   Clear
12:52 PM 32.0 °F 21.6 °F 10.0 °F 40% 30.16 in 10.0 mi SW 15.0 mph 19.6 mph N/A   Clear
1:52 PM 33.1 °F 23.9 °F 8.1 °F 35% 30.12 in 10.0 mi SSW 12.7 mph 19.6 mph N/A   Scattered Clouds
2:52 PM 35.1 °F 26.4 °F 12.0 °F 39% 30.09 in 10.0 mi SSW 12.7 mph 20.7 mph N/A   Mostly Cloudy
3:52 PM 35.1 °F 25.5 °F 10.0 °F 35% 30.09 in 10.0 mi SSW 15.0 mph 24.2 mph N/A   Clear
4:52 PM 35.1 °F 24.5 °F 12.9 °F 40% 30.06 in 10.0 mi SW 18.4 mph 26.5 mph N/A   Clear
5:52 PM 35.1 °F 25.5 °F 18.0 °F 50% 30.04 in 10.0 mi SW 15.0 mph - N/A   Clear
6:52 PM 34.0 °F 23.4 °F 19.9 °F 56% 30.03 in 10.0 mi SSW 17.3 mph 26.5 mph N/A   Clear
7:52 PM 35.1 °F 24.1 °F 23.0 °F 61% 30.01 in 10.0 mi SSW 19.6 mph 25.3 mph N/A   Clear
8:52 PM 36.0 °F 25.6 °F 24.1 °F 62% 30.01 in 10.0 mi SW 18.4 mph 24.2 mph N/A   Clear
9:52 PM 37.0 °F 26.4 °F 25.0 °F 62% 30.00 in 10.0 mi SW 20.7 mph 29.9 mph N/A   Clear
10:52 PM 37.0 °F 27.7 °F 27.0 °F 67% 29.99 in 10.0 mi SSW 16.1 mph 24.2 mph N/A   Clear
11:52 PM 37.9 °F 29.2 °F 28.0 °F 68% 29.97 in 10.0 mi SSW 15.0 mph 21.9 mph N/A   Clear